• Processing (Info)

  • MPEC 2020-P67 : 2020 PO1

    The following Minor Planet Electronic Circular may be linked-to from your own Web pages, but must not otherwise be redistributed electronically.

    A form allowing access to any MPEC is at the bottom of this page.


    Read MPEC 2020-P66 Read MPEC 2020-P68


    M.P.E.C. 2020-P67                               Issued 2020 August 13, 10:42 UT
    
         The Minor Planet Electronic Circulars contain information on unusual
             minor planets and routine data on comets.  They are published
        on behalf of Division F of the International Astronomical Union by the
              Minor Planet Center, Smithsonian Astrophysical Observatory,
                              Cambridge, MA 02138, U.S.A.
    
                 Prepared using the Tamkin Foundation Computer Network
    
                                  MPC@CFA.HARVARD.EDU
                URL https://www.minorplanetcenter.net/    ISSN 1523-6714
    
                                    2020 PO1                                 
    
    
    Observations:
         K20P01O* C2020 08 11.29045020 15 46.301-10 53 33.10         21.45wUEP067F51
         K20P01O  C2020 08 11.30320320 15 49.134-10 53 33.40         21.33wUEP067F51
         K20P01O  C2020 08 11.31599820 15 51.972-10 53 33.53         21.45wUEP067F51
         K20P01O  C2020 08 11.32871220 15 54.785-10 53 33.60         21.24wUEP067F51
         K20P01O  C2020 08 11.90683 20 18 17.45 -10 53 44.8          21.7 VVEP067033
         K20P01O  C2020 08 11.91042 20 18 18.27 -10 53 44.9          21.6 VVEP067033
         K20P01O  C2020 08 11.91401 20 18 19.15 -10 53 44.4          21.8 VVEP067033
         K20P01O KC2020 08 12.39805020 20 24.34 -10 51 55.4          20.9 GVEP067474
         K20P01O KC2020 08 12.41222220 20 27.78 -10 51 54.9          20.9 GVEP067474
         K20P01O KC2020 08 12.41693920 20 28.86 -10 51 54.8          21.3 GVEP067474
         K20P01O  C2020 08 12.97924 20 22 54.16 -10 53 16.8          22.0 VVEP067033
         K20P01O  C2020 08 12.98283 20 22 55.02 -10 53 16.8          22.6 VVEP067033
         K20P01O KC2020 08 13.14460220 23 40.58 -10 53 04.2          21.1 VuEP067H21
         K20P01O KC2020 08 13.15015620 23 41.95 -10 53 04.2          20.9 VuEP067H21
         K20P01O KC2020 08 13.15644420 23 43.50 -10 53 04.3          21.1 VuEP067H21
    
    Observer details:
    033 Karl Schwarzschild Observatory, Tautenburg.  Observers S. Melnikov, U.
        Laux, B. Stecklum.  Measurer B. Stecklum.  1.34-m f/3 Schmidt + CCD.
    474 Mount John Observatory, Lake Tekapo.  Observers A. C. Gilmore, P. M.
        Kilmartin.  Measurer P. M. Kilmartin.  1.0-m f/7.7 reflector + CCD.
    F51 Pan-STARRS 1, Haleakala.  Observers J. Bulger, T. Lowe, A. Schultz, M.
        Willman.  Measurers K. Chambers, S. Chastel, T. de Boer, L. Denneau, J.
        Fairlamb, H. Flewelling, M. Huber, C.-C. Lin, E. Magnier, Y. Ramanjooloo,
        R. Wainscoat, R. Weryk.  1.8-m Ritchey-Chretien + CCD.
    H21 Astronomical Research Observatory, Westfield.  Observer R. Holmes.
        Measurers S. Foglia, L. Buzzi, T. Linder, R. Holmes.  0.81-m f/4.0
        astrograph + CCD.
    
    Orbital elements:
    2020 PO1                                                 Earth MOID = 0.1034 AU
    Epoch 2020 May 31.0 TT = JDT 2459000.5                  Veres
    M 335.91969              (2000.0)            P               Q
    n   0.25783519     Peri.  179.57316     +0.93183161     +0.36250998
    a   2.4447883      Node   159.14854     -0.33308421     +0.87257816
    e   0.5450441      Incl.    2.67697     -0.14403044     +0.32740475
    P   3.82           H   24.6           G   0.15           U   7
    Residuals in seconds of arc
    200811 F51  0.1+  0.1+    200811 033  0.1+  0.3-    200812 033  0.1+  0.0
    200811 F51  0.0   0.0     200811 033  0.7+  0.1+    200812 033  0.4-  0.2-
    200811 F51  0.1-  0.0     200812 474  0.4-  0.3-    200813 H21  0.1+  0.2+
    200811 F51  0.1-  0.0     200812 474  0.1+  0.2+    200813 H21  0.1+  0.1+
    200811 033  0.4+  0.1-    200812 474  0.7-  0.2+    200813 H21  0.1+  0.0
    
    Ephemeris:
    2020 PO1                 a,e,i = 2.44, 0.55, 3                   q = 1.1123
    Date    TT    R. A. (2000) Decl.     Delta      r    Elong.  Phase     V
    2020 07 14    19 17 57.8 -11 48 54   0.2425  1.2557   169.4     8.5    22.6
    ...
    2020 07 29    19 37 00.6 -11 04 10   0.1757  1.1854   164.3    13.4    22.0
    ...
    2020 08 06    19 56 50.4 -10 55 23   0.1480  1.1563   162.5    15.3    21.6
    ...
    2020 08 12    20 18 40.5 -10 52 43   0.1307  1.1389   162.7    15.3    21.3
    2020 08 13    20 23 00.5 -10 52 17   0.1282  1.1364   162.9    15.2    21.3
    2020 08 14    20 27 33.2 -10 51 45   0.1258  1.1340   163.2    15.0    21.2
    ...
    2020 08 20    20 59 27.7 -10 44 35   0.1135  1.1222   165.7    12.9    20.9
    ...
    2020 08 28    21 53 26.6 -10 10 32   0.1044  1.1135   171.8     7.5    20.5
    ...
    2020 09 12    23 40 49.1 -07 22 44   0.1136  1.1195   174.1     5.3    20.6
    
    M. P. C. Staff               (C) Copyright 2020 MPC           M.P.E.C. 2020-P67
    


    Read MPEC 2020-P66 Read MPEC 2020-P68


    MPEC number:

    Enter an MPEC number in one of the following forms:

    • 1997-B01 (the full form)
    • J97B01 (the packed version of the full form)
    • B01 (the abbreviated form)